Total_Precipitation_Accumulation
4.34 3.78 3.55 2.96 2.21 1.67 1.64 2.06 2.05 1.80 1.41 1.27 1.45 1.34 1.38 1.40 1.35 1.47 1.75 1.82 1.78 1.62
4.22 3.48 3.31 3.50 3.33 2.04 1.46 1.34 1.78 1.68 1.36 1.03 0.86 1.01 1.16 1.16 1.18 1.29 1.32 1.27 1.31 1.30
3.98 4.20 3.77 3.25 3.27 2.99 1.97 1.65 1.50 1.50 1.26 0.98 0.81 0.68 0.66 0.71 0.72 0.99 1.08 1.14 1.24 1.23
2.47 3.40 3.52 3.86 3.27 3.16 2.85 2.14 2.06 2.00 1.86 1.37 0.98 0.70 0.67 0.55 0.50 0.58 0.71 0.90 1.07 1.05
1.26 2.08 2.20 2.75 3.07 3.22 2.88 2.72 2.08 1.95 2.01 1.86 1.54 1.15 0.89 0.71 0.64 0.52 0.46 0.50 0.76 0.81
1.11 1.31 1.45 1.91 2.22 2.51 2.98 2.54 2.34 2.06 2.18 2.03 1.92 1.73 1.36 1.11 1.01 0.91 0.74 0.65 0.63 0.58
1.33 1.56 1.27 1.21 1.65 1.76 2.35 3.03 2.48 2.38 1.70 1.44 1.63 1.74 1.72 1.55 1.39 1.22 1.12 0.96 0.83 0.78
1.55 1.29 1.46 1.57 1.69 2.03 2.00 2.39 2.67 2.68 2.41 1.79 1.54 1.63 1.59 1.52 1.53 1.49 1.38 1.30 1.28 1.14
1.89 1.49 1.15 1.33 1.48 1.96 2.32 2.43 3.21 2.98 3.24 2.80 2.16 2.08 1.88 1.75 1.85 1.89 1.89 1.68 1.36 1.32
2.47 2.03 1.67 1.39 1.58 1.68 2.20 2.50 3.18 3.46 3.41 3.69 3.56 3.51 2.82 2.62 2.29 2.48 2.47 2.11 1.99 1.80
2.99 2.94 3.19 2.64 2.39 2.70 2.78 3.04 3.19 3.54 3.57 2.82 2.97 3.21 2.88 2.61 2.20 1.94 1.73 1.75 1.65 1.71
2.27 2.76 2.73 2.90 3.38 3.24 3.49 3.65 3.58 3.33 3.11 2.50 2.31 2.41 2.36 2.69 2.62 2.34 1.87 1.58 1.49 1.65
2.06 2.19 2.24 1.87 2.36 2.46 2.08 2.16 2.23 2.26 2.33 2.35 1.74 1.86 1.63 1.67 2.07 2.32 1.92 1.79 1.42 1.75
1.49 1.72 2.09 2.23 1.94 2.23 2.07 1.62 1.60 1.69 1.40 1.28 1.20 1.09 1.34 1.25 1.25 1.41 1.59 1.43 1.18 1.03